User: anonymous   Login
Location: Gleizolles
(44.4833°N, 6.7667°E)
Time: 02:50:45
(UTC+00:00)
Language:

BEESAT - Orbit

View from above orbital plane
View from above orbital plane
View from above satellite
View from above satellite

Ground track
Ground track

The orbit data is extracted from the following two-line orbital elements,

1 35933U 09051C   22342.83594643  .00000814  00000-0  19139-3 0  9992
2 35933  98.5374 204.9588 0004640 240.5549 119.5186 14.57100541701568
Epoch (UTC): 08 December 2022 20:03:45
Eccentricity: 0.0004640
inclination: 98.5374°
perigee height: 699 km
apogee height: 706 km
right ascension of ascending node: 204.9588°
argument of perigee: 240.5549°
revolutions per day: 14.57100541
mean anomaly at epoch: 119.5186°
orbit number at epoch: 70156

The dashed part of the orbit path shows where the satellite is in the earth's shadow,  

DLR